Location: Berg
(48.4333°N, 13.9167°E)
Time: 05:11:16
(UTC+00:00)

ATLAS CENTAUR R/B - Pass Details

Date: 26 January 2021
Orbit: 475 x 670 km, 64.7° (Epoch: 06 March)

Event Time Altitude Azimuth Distance (km) Brightness Sun altitude
Exits shadow 06:04:26 - 269° (W) 1,942 3.5 -6.3°
Reaches altitude 10° 06:05:22 10° 278° (W) 1,647 3.1 -6.2°
Maximum altitude 06:08:04 19° 326° (NW) 1,190 2.6 -5.7°
Drops below altitude 10° 06:10:47 10° 14° (NNE) 1,664 3.7 -5.3°
Sets 06:13:25 0° 32° (NNE) 2,565 4.9 -4.9°
